• în România
  • Lista ţărilor
  • Pe 7 zile
  • Temperatura apei
  • Hartă satelitară
  • Meteo pe hartă
  • Widget-uri
  • user-avatar
    Intrare

    Meteo pe oră la Kitzbuhel

    Astăzi, 19 Iulie, Joi

    Timp Temperatura Precipitaţii Vânt Presiune Umiditate
    00:00 +14°C° 0 mm 2 m/s 678 mmHg 89%
    01:00 +14°C° 0 mm 2 m/s 678 mmHg 88%
    02:00 +14°C° 0 mm 2 m/s 678 mmHg 88%
    03:00 +13°C° 0 mm 2 m/s 678 mmHg 89%
    04:00 +13°C° 0 mm 2 m/s 678 mmHg 90%
    05:00 +14°C° 0 mm 1 m/s 678 mmHg 86%
    06:00 +16°C° 0 mm 1 m/s 678 mmHg 81%
    07:00 +19°C° 0 mm 1 m/s 679 mmHg 76%
    08:00 +21°C° 0 mm 1 m/s 679 mmHg 68%
    09:00 +22°C° 0 mm 1 m/s 679 mmHg 59%
    10:00 +24°C° 0 mm 2 m/s 680 mmHg 51%
    11:00 +25°C° 0 mm 2 m/s 680 mmHg 48%
    12:00 +25°C° 0 mm 2 m/s 680 mmHg 46%
    13:00 +26°C° 0 mm 2 m/s 680 mmHg 43%
    14:00 +26°C° 0 mm 2 m/s 679 mmHg 45%
    15:00 +26°C° 0 mm 2 m/s 679 mmHg 47%
    16:00 +25°C° 0 mm 2 m/s 679 mmHg 49%
    17:00 +24°C° 0,1 mm 2 m/s 679 mmHg 59%
    18:00 +22°C° 0,1 mm 1 m/s 678 mmHg 69%
    19:00 +21°C° 0,1 mm 1 m/s 678 mmHg 78%
    20:00 +19°C° 0,1 mm 1 m/s 678 mmHg 83%
    21:00 +16°C° 0,1 mm 1 m/s 678 mmHg 87%
    22:00 +15°C° 0,1 mm 1 m/s 678 mmHg 92%
    23:00 +14°C° 0 mm 1 m/s 678 mmHg 93%

    Mâine, 20 Iulie, Vineri

    Timp Temperatura Precipitaţii Vânt Presiune Umiditate
    00:00 +14°C° 0 mm 1 m/s 678 mmHg 93%
    01:00 +14°C° 0 mm 1 m/s 678 mmHg 94%
    02:00 +14°C° 0 mm 1 m/s 678 mmHg 93%
    03:00 +13°C° 0 mm 1 m/s 677 mmHg 93%
    04:00 +13°C° 0 mm 1 m/s 677 mmHg 93%
    05:00 +15°C° 0 mm 1 m/s 677 mmHg 88%
    06:00 +16°C° 0 mm 0 m/s 678 mmHg 82%
    07:00 +17°C° 0 mm 0 m/s 678 mmHg 77%
    08:00 +19°C° 0,1 mm 0 m/s 678 mmHg 71%
    09:00 +22°C° 0,1 mm 1 m/s 679 mmHg 64%
    10:00 +24°C° 0,1 mm 1 m/s 679 mmHg 58%
    11:00 +24°C° 0,5 mm 1 m/s 679 mmHg 59%
    12:00 +25°C° 0,5 mm 1 m/s 679 mmHg 59%
    13:00 +25°C° 0,5 mm 1 m/s 678 mmHg 60%
    14:00 +24°C° 1,1 mm 1 m/s 678 mmHg 64%
    15:00 +24°C° 1,1 mm 1 m/s 678 mmHg 69%
    16:00 +23°C° 1,1 mm 1 m/s 678 mmHg 73%
    17:00 +22°C° 0,4 mm 1 m/s 677 mmHg 77%
    18:00 +21°C° 0,4 mm 1 m/s 677 mmHg 82%
    19:00 +20°C° 0,4 mm 1 m/s 677 mmHg 86%
    20:00 +19°C° 0 mm 1 m/s 677 mmHg 87%
    21:00 +18°C° 0 mm 1 m/s 676 mmHg 88%
    22:00 +16°C° 0 mm 1 m/s 676 mmHg 89%
    23:00 +15°C° 0 mm 1 m/s 676 mmHg 89%

    Poimâine, 21 Iulie, Sâmbătă

    Timp Temperatura Precipitaţii Vânt Presiune Umiditate
    00:00 +15°C° 0 mm 1 m/s 676 mmHg 89%
    01:00 +15°C° 0 mm 1 m/s 676 mmHg 89%
    02:00 +15°C° 0 mm 1 m/s 675 mmHg 88%
    03:00 +15°C° 0 mm 1 m/s 675 mmHg 88%
    04:00 +15°C° 0 mm 1 m/s 675 mmHg 87%
    05:00 +15°C° 0,2 mm 1 m/s 675 mmHg 88%
    06:00 +16°C° 0,2 mm 1 m/s 675 mmHg 89%
    07:00 +16°C° 0,2 mm 1 m/s 676 mmHg 89%
    08:00 +18°C° 0,6 mm 1 m/s 676 mmHg 89%
    09:00 +18°C° 0,6 mm 1 m/s 676 mmHg 89%
    10:00 +19°C° 0,6 mm 1 m/s 676 mmHg 88%
    11:00 +19°C° 1 mm 1 m/s 676 mmHg 87%
    12:00 +20°C° 1 mm 1 m/s 676 mmHg 86%
    13:00 +20°C° 1 mm 1 m/s 676 mmHg 85%
    14:00 +20°C° 1,1 mm 1 m/s 676 mmHg 86%
    15:00 +20°C° 1,1 mm 1 m/s 676 mmHg 86%
    16:00 +19°C° 1,1 mm 1 m/s 676 mmHg 87%
    17:00 +19°C° 0,6 mm 1 m/s 676 mmHg 88%
    18:00 +18°C° 0,6 mm 1 m/s 676 mmHg 90%
    19:00 +18°C° 0,6 mm 1 m/s 676 mmHg 91%
    20:00 +16°C° 0,1 mm 1 m/s 676 mmHg 92%
    21:00 +15°C° 0,1 mm 1 m/s 676 mmHg 92%
    22:00 +14°C° 0,1 mm 1 m/s 675 mmHg 93%
    23:00 +13°C° 0 mm 1 m/s 675 mmHg 92%

    22 Iulie, Duminică

    Timp Temperatura Precipitaţii Vânt Presiune Umiditate
    00:00 +13°C° 0 mm 1 m/s 675 mmHg 91%
    01:00 +13°C° 0 mm 1 m/s 675 mmHg 90%
    02:00 +13°C° 0 mm 1 m/s 675 mmHg 89%
    03:00 +12°C° 0 mm 1 m/s 675 mmHg 89%
    04:00 +12°C° 0 mm 2 m/s 675 mmHg 88%
    05:00 +13°C° 0 mm 1 m/s 675 mmHg 86%
    06:00 +15°C° 0 mm 1 m/s 675 mmHg 85%
    07:00 +16°C° 0 mm 1 m/s 675 mmHg 83%
    08:00 +18°C° 0,3 mm 1 m/s 675 mmHg 80%
    09:00 +19°C° 0,3 mm 1 m/s 676 mmHg 77%
    10:00 +21°C° 0,3 mm 1 m/s 676 mmHg 74%
    11:00 +21°C° 1 mm 1 m/s 675 mmHg 76%
    12:00 +20°C° 1 mm 2 m/s 675 mmHg 78%
    13:00 +20°C° 1 mm 2 m/s 675 mmHg 80%
    14:00 +20°C° 1,3 mm 2 m/s 675 mmHg 83%
    15:00 +19°C° 1,3 mm 2 m/s 675 mmHg 86%
    16:00 +19°C° 1,3 mm 2 m/s 675 mmHg 89%
    17:00 +18°C° 0,9 mm 2 m/s 675 mmHg 91%
    18:00 +17°C° 0,9 mm 2 m/s 675 mmHg 93%
    19:00 +17°C° 0,9 mm 2 m/s 675 mmHg 96%
    20:00 +16°C° 0,4 mm 2 m/s 675 mmHg 96%
    21:00 +15°C° 0,4 mm 2 m/s 675 mmHg 96%
    22:00 +15°C° 0,4 mm 2 m/s 676 mmHg 97%
    23:00 +15°C° 0,4 mm 2 m/s 676 mmHg 97%

    23 Iulie, Luni

    Timp Temperatura Precipitaţii Vânt Presiune Umiditate
    00:00 +14°C° 0,4 mm 2 m/s 676 mmHg 97%
    01:00 +14°C° 0,4 mm 2 m/s 676 mmHg 97%
    02:00 +14°C° 0,8 mm 2 m/s 676 mmHg 97%
    03:00 +14°C° 0,8 mm 2 m/s 676 mmHg 97%
    04:00 +14°C° 0,8 mm 2 m/s 676 mmHg 97%
    05:00 +14°C° 0,6 mm 2 m/s 676 mmHg 97%
    06:00 +15°C° 0,6 mm 2 m/s 677 mmHg 96%
    07:00 +15°C° 0,6 mm 2 m/s 677 mmHg 95%
    08:00 +16°C° 0,3 mm 2 m/s 677 mmHg 88%
    09:00 +18°C° 0,3 mm 2 m/s 678 mmHg 81%
    10:00 +19°C° 0,3 mm 2 m/s 678 mmHg 74%
    11:00 +20°C° 0,3 mm 2 m/s 678 mmHg 71%
    12:00 +21°C° 0,3 mm 2 m/s 678 mmHg 68%
    13:00 +23°C° 0,3 mm 2 m/s 678 mmHg 65%
    14:00 +23°C° 0,4 mm 2 m/s 678 mmHg 66%
    15:00 +21°C° 0,4 mm 2 m/s 678 mmHg 67%
    16:00 +21°C° 0,4 mm 2 m/s 678 mmHg 68%
    17:00 +20°C° 0,3 mm 2 m/s 678 mmHg 74%
    18:00 +19°C° 0,3 mm 2 m/s 678 mmHg 80%
    19:00 +19°C° 0,3 mm 1 m/s 678 mmHg 87%
    20:00 +18°C° 0 mm 1 m/s 678 mmHg 89%
    21:00 +15°C° 0 mm 1 m/s 678 mmHg 92%
    22:00 +14°C° 0 mm 1 m/s 678 mmHg 95%
    23:00 +13°C° 0 mm 1 m/s 678 mmHg 94%

    24 Iulie, Marţi

    Timp Temperatura Precipitaţii Vânt Presiune Umiditate
    00:00 +13°C° 0 mm 1 m/s 678 mmHg 94%
    01:00 +13°C° 0 mm 1 m/s 677 mmHg 93%
    02:00 +12°C° 0 mm 1 m/s 677 mmHg 92%
    03:00 +12°C° 0 mm 1 m/s 677 mmHg 92%
    04:00 +12°C° 0 mm 1 m/s 677 mmHg 91%
    05:00 +13°C° 0 mm 1 m/s 677 mmHg 86%
    06:00 +15°C° 0 mm 1 m/s 678 mmHg 82%
    07:00 +18°C° 0 mm 1 m/s 678 mmHg 77%
    08:00 +20°C° 0 mm 1 m/s 678 mmHg 68%
    09:00 +22°C° 0 mm 1 m/s 678 mmHg 59%
    10:00 +24°C° 0 mm 1 m/s 679 mmHg 50%
    11:00 +25°C° 0 mm 1 m/s 679 mmHg 48%
    12:00 +26°C° 0 mm 2 m/s 678 mmHg 46%
    13:00 +27°C° 0 mm 2 m/s 678 mmHg 43%
    14:00 +27°C° 0 mm 2 m/s 678 mmHg 46%
    15:00 +26°C° 0 mm 2 m/s 678 mmHg 49%
    16:00 +26°C° 0 mm 2 m/s 678 mmHg 52%
    17:00 +24°C° 0 mm 2 m/s 678 mmHg 62%
    18:00 +23°C° 0 mm 1 m/s 677 mmHg 72%
    19:00 +21°C° 0 mm 1 m/s 677 mmHg 82%
    20:00 +20°C° 0 mm 1 m/s 677 mmHg 86%
    21:00 +18°C° 0 mm 1 m/s 677 mmHg 90%
    22:00 +15°C° 0 mm 1 m/s 677 mmHg 94%
    23:00 +15°C° 0 mm 1 m/s 677 mmHg 94%
    Arată mai mult